Location: *
(44.1392°N, 4.8079°E)
Time: 07:30:54
(UTC+00:00)

Cosmos 1937 Rocket - Pass Details

Date: 21 June 2021
Orbit: 746 x 780 km, 74.0° (Epoch: 02 August)

Event Time Altitude Azimuth Distance (km) Brightness Sun altitude
Rises 01:30:29 0° 330° (NNW) 3,275 7.3 -18.0°
Reaches altitude 10° 01:33:05 10° 321° (NW) 2,342 6.3 -17.8°
Maximum altitude 01:37:45 32° 260° (W) 1,324 4.4 -17.5°
Enters shadow 01:39:09 28° 231° (SW) 1,443 4.4 -17.3°
